TimePST,TemperatureF,Dew PointF,Humidity,Sea Level PressureIn,VisibilityMPH,Wind Direction,Wind SpeedMPH,Gust SpeedMPH,PrecipitationIn,Events,Conditions,WindDirDegrees,DateUTC
12:56 AM,21.9,-7.1,28,30.46,10.0,Calm,Calm,-,N/A,,Clear,0,2013-01-15 08:56:00
1:56 AM,18.0,-7.1,33,30.48,10.0,West,5.8,-,N/A,,Clear,280,2013-01-15 09:56:00
2:56 AM,19.0,-6.0,33,30.48,10.0,West,6.9,-,N/A,,Clear,280,2013-01-15 10:56:00
3:56 AM,18.0,-6.0,35,30.48,10.0,West,4.6,-,N/A,,Clear,280,2013-01-15 11:56:00
4:56 AM,18.0,-4.0,38,30.50,10.0,NW,4.6,-,N/A,,Clear,310,2013-01-15 12:56:00
5:56 AM,16.0,-5.1,39,30.54,10.0,Calm,Calm,-,N/A,,Clear,0,2013-01-15 13:56:00
6:56 AM,17.1,-2.0,43,30.56,10.0,Calm,Calm,-,N/A,,Clear,0,2013-01-15 14:56:00
7:56 AM,18.0,-0.9,44,30.59,10.0,Calm,Calm,-,N/A,,Clear,0,2013-01-15 15:56:00
8:56 AM,28.0,-0.9,29,30.60,10.0,NW,3.5,-,N/A,,Clear,310,2013-01-15 16:56:00
9:56 AM,35.1,-2.0,21,30.59,10.0,Calm,Calm,-,N/A,,Clear,0,2013-01-15 17:56:00
10:56 AM,41.0,-2.0,16,30.55,10.0,NE,4.6,-,N/A,,Clear,40,2013-01-15 18:56:00
11:56 AM,45.0,3.0,18,30.50,10.0,NE,6.9,-,N/A,,Clear,50,2013-01-15 19:56:00
12:56 PM,48.0,5.0,17,30.46,10.0,NE,15.0,-,N/A,,Clear,40,2013-01-15 20:56:00
1:56 PM,48.9,7.0,18,30.46,10.0,NE,13.8,-,N/A,,Clear,40,2013-01-15 21:56:00
2:56 PM,50.0,7.0,18,30.45,10.0,NNE,13.8,-,N/A,,Clear,30,2013-01-15 22:56:00
3:56 PM,48.9,8.1,19,30.46,10.0,NE,10.4,-,N/A,,Clear,50,2013-01-15 23:56:00
4:56 PM,45.0,7.0,21,30.47,10.0,NNE,5.8,-,N/A,,Clear,30,2013-01-16 00:56:00
5:56 PM,37.9,5.0,25,30.49,10.0,North,10.4,-,N/A,,Clear,10,2013-01-16 01:56:00
6:56 PM,36.0,3.9,26,30.50,10.0,North,6.9,-,N/A,,Clear,10,2013-01-16 02:56:00
7:56 PM,35.1,3.9,27,30.52,10.0,North,6.9,-,N/A,,Clear,360,2013-01-16 03:56:00
8:56 PM,32.0,3.9,31,30.51,10.0,SSW,3.5,-,N/A,,Clear,200,2013-01-16 04:56:00
9:56 PM,28.0,1.9,33,30.52,10.0,WSW,5.8,-,N/A,,Clear,250,2013-01-16 05:56:00
10:56 PM,27.0,3.0,36,30.51,10.0,Calm,Calm,-,N/A,,Clear,0,2013-01-16 06:56:00
11:56 PM,27.0,5.0,39,30.51,10.0,WSW,3.5,-,N/A,,Clear,240,2013-01-16 07:56:00